Location: Équennes
(49.7375°N, 1.9622°E)
Time: 09:57:16
(UTC+00:00)

Cosmos 1656 - Pass Details

Date: 09 October 2023
Orbit: 797 x 849 km, 71.1° (Epoch: 10 December)

Event Time Altitude Azimuth Distance (km) Brightness Sun altitude
Rises 20:37:27 0° 333° (NNW) 3,320 7.6 -32.4°
Reaches altitude 10° 20:39:56 10° 339° (NNW) 2,391 6.6 -32.7°
Enters shadow 20:42:59 31° 358° (N) 1,383 5.0 -33.1°
